Location: Cactus School
(34.5700°N, 118.0931°W)
Time: 09:03:47
(UTC-08:00)

A-11 Canister half - Pass Details

Date: 27 November 2019
Orbit: 1515 x 1685 km, 47.2° (Epoch: 05 December)

Event Time Altitude Azimuth Distance (km) Brightness Sun altitude
Rises 16:52:50 0° 268° (W) 4,849 13.2 -2.8°
Reaches altitude 10° 16:56:09 10° 274° (W) 3,885 12.3 -3.4°
Maximum altitude 17:05:37 45° 345° (NNW) 2,161 9.8 -5.2°
Drops below altitude 10° 17:15:17 10° 57° (ENE) 3,952 10.5 -7.0°
Enters shadow 17:16:10 - 59° (ENE) 4,200 10.6 -7.2°
